Flag for France Weather past 2 weeks in Paris, France

Now
45 °F

Passing clouds.


Feels Like: 40 °F
Forecast: 39 / 48 °F
Wind: 9 mph from West

Location: Villacoublay

Current Time: Dec 20, 2014 at 11:29:37 PM

Latest Report: Dec 20, 2014 at 11:00 PM


Visibility: N/A

Pressure: 30.51 "Hg

Humidity: 87%

Dew point: 41 °F

Location of ParisLocation

Historic Weather in Paris — Graph

°F

Paris temperature yesterday

Maximum temperature yesterday: 54 °F (at 4:00 PM)
Minimum temperature yesterday: 46 °F (at 7:30 PM)
Average temperature yesterday: 50 °F

Past Weeks' High & Low Weather Summary

 TemperatureHumidityPressure
High55 °F (Dec 18, 11:00 AM)100% (Dec 7, 5:00 AM)30.51 "Hg (Dec 7, 5:00 AM)
Low30 °F (Dec 7, 6:30 AM)66% (Dec 16, 1:30 PM)29.59 "Hg (Dec 12, 1:30 PM)
Average42 °F89%30.08 "Hg
* Reported Dec 5 10:00 PM — Dec 20 10:30 PM, Paris, Weather by CustomWeather, © 2014

Note: Actual official high and low records may vary slightly from our data, if they occured in-between our weather recording intervals... More about our weather records

Advertising

Paris weather history for previous 24 hours

 ConditionsComfort  
Time TempWeatherWind HumidityBarometerVisibility
10:30 PM
Dec 20
45 °FOvercast.8 mph87%30.51 "HgN/A
10:00 PM45 °FOvercast.6 mph87%30.51 "HgN/A
9:30 PM45 °FPassing clouds.7 mph87%30.48 "HgN/A
9:00 PM45 °FOvercast.7 mph87%30.48 "HgN/A
8:30 PM45 °FLight rain. Passing clouds.6 mph87%30.48 "HgN/A
8:00 PM45 °FLight rain. Mostly cloudy.9 mph81%30.48 "HgN/A
7:30 PM45 °FMostly cloudy.6 mph87%30.45 "HgN/A
7:00 PM45 °FMostly cloudy.5 mph87%30.45 "HgN/A
6:00 PM46 °FPartly cloudy.13 mph76%30.42 "HgN/A
5:30 PM46 °FPassing clouds.10 mph76%30.42 "HgN/A
5:00 PM46 °FPassing clouds.13 mph76%30.39 "HgN/A
4:30 PM46 °FPartly sunny.15 mph76%30.39 "HgN/A
4:00 PM48 °FMore clouds than sun.12 mph71%30.39 "HgN/A
3:30 PM48 °FOvercast.12 mph71%30.39 "HgN/A
3:00 PM48 °FCloudy.15 mph71%30.36 "HgN/A
2:30 PM48 °FOvercast.15 mph71%30.36 "HgN/A
2:00 PM48 °FOvercast.15 mph71%30.39 "HgN/A
1:30 PM48 °FBroken clouds.18 mph71%30.36 "HgN/A
1:00 PM48 °FCloudy.14 mph71%30.39 "HgN/A
12:30 PM48 °FMostly cloudy.8 mph71%30.39 "HgN/A
12:00 PM48 °FOvercast.10 mph66%30.39 "HgN/A
11:30 AM46 °FOvercast.10 mph71%30.42 "HgN/A
11:00 AM46 °FOvercast.12 mph71%30.39 "HgN/A
10:30 AM46 °FOvercast.9 mph71%30.39 "HgN/A
10:00 AM45 °FPartly sunny.8 mph76%30.39 "HgN/A
9:30 AM45 °FPartly sunny.7 mph71%30.39 "HgN/A
9:00 AM45 °FOvercast.5 mph71%30.39 "HgN/A
8:30 AM43 °FMostly cloudy.7 mph76%30.39 "HgN/A
8:00 AM43 °FOvercast.8 mph76%30.39 "HgN/A
7:30 AM43 °FOvercast.5 mph76%30.39 "HgN/A
7:00 AM43 °FOvercast.6 mph76%30.36 "HgN/A
6:30 AM43 °FOvercast.8 mph76%30.36 "HgN/A
6:00 AM43 °FOvercast.8 mph76%30.36 "HgN/A
5:30 AM43 °FPassing clouds.7 mph81%30.36 "HgN/A
5:00 AM43 °FPassing clouds.7 mph81%30.33 "HgN/A
4:30 AM45 °FOvercast.6 mph81%30.33 "HgN/A
4:00 AM45 °FOvercast.6 mph81%30.36 "HgN/A
3:30 AM45 °FOvercast.7 mph81%30.36 "HgN/A
3:00 AM45 °FOvercast.5 mph81%30.36 "HgN/A
2:30 AM45 °FMostly cloudy.5 mph81%30.36 "HgN/A
2:00 AM43 °FPassing clouds.6 mph87%30.33 "HgN/A
1:30 AM45 °FPassing clouds.7 mph81%30.33 "HgN/A
1:00 AM45 °FOvercast.7 mph76%30.33 "HgN/A
12:30 AM45 °FOvercast.5 mph76%30.33 "HgN/A
12:00 AM45 °FPassing clouds.6 mph76%30.33 "HgN/A
11:30 PM
Dec 19
46 °FOvercast.5 mph76%30.30 "HgN/A
11:00 PM46 °FOvercast.3 mph76%30.30 "HgN/A
Weather by CustomWeather, © 2014

See weather overviewHow to use our weather pages